Orange, VA

2:11 PM EST on February 25, 2017 (GMT -0500)
Orange County

Weather History for KOMH - April, 2013

Change the Weather History Date:

Thursday, April 4, 2013

  Actual Average Record
Temperature  
Mean Temperature 36 °F -  
Max Temperature 46 °F 63 °F 89 °F (1963)
Min Temperature 26 °F 41 °F 25 °F (1954)
Degree Days  
Heating Degree Days 29    
Moisture  
Dew Point 23 °F    
Average Humidity 63    
Maximum Humidity 100    
Minimum Humidity 29    
Precipitation  
Precipitation 0.18 in - - ()
Sea Level Pressure  
Sea Level Pressure 30.31 in    
Wind  
Wind Speed 3 mph (SE)    
Max Wind Speed 12 mph    
Max Gust Speed 22 mph    
Visibility 9 miles    
Events Rain    
Averages and records for this station are not official NWS values.
T = Trace of Precipitation, MM = Missing Value Source: NWS Daily Summary

Daily Weather History Graph

Daily Weather History Graph

Search for Another Location

Airport or City:

Trip Planner

Search our weather history database for the weather conditions in past years. The results will help you decide how hot, cold, wet, or windy it might be!

Date:

Astronomy

Apr. 04, 2013 Rise Set
Actual Time 6:52 AM EDT 7:38 PM EDT
Civil Twilight 6:25 AM EDT 8:05 PM EDT
Nautical Twilight 5:54 AM EDT 8:36 PM EDT
Astronomical Twilight 5:21 AM EDT 9:09 PM EDT
Moon 3:12 AM EDT (4/4) 1:59 PM EDT (4/4)
Length of Visible Light 13h 39m
Length of Day
12h 46m
Waning Crescent, 34% of the Moon is Illuminated
Apr 4
Waning Crescent
Apr 10
New
Apr 18
First Quarter
Apr 25
Full
May 2
Last Quarter

Hourly Weather History & Observations

Time (EDT) Temp. Windchill Dew Point Humidity Pressure Visibility Wind Dir Wind Speed Gust Speed Precip Events Conditions
12:15 AM 33.8 °F 28.6 °F 21.2 °F 60% 30.40 in 10.0 mi North 5.8 mph - N/A   Clear
12:35 AM 32.0 °F 27.5 °F 23.0 °F 69% 30.40 in 10.0 mi North 4.6 mph - N/A   Clear
12:55 AM 32.0 °F 27.5 °F 23.0 °F 69% 30.40 in 10.0 mi North 4.6 mph - N/A   Clear
1:15 AM 32.0 °F 28.7 °F 23.0 °F 69% 30.40 in 10.0 mi NE 3.5 mph - N/A   Clear
1:35 AM 32.0 °F 26.4 °F 23.0 °F 69% 30.39 in 10.0 mi North 5.8 mph - N/A   Clear
1:55 AM 32.0 °F 27.5 °F 23.0 °F 69% 30.39 in 10.0 mi NNE 4.6 mph - N/A   Clear
2:15 AM 32.0 °F 28.7 °F 21.2 °F 64% 30.39 in 10.0 mi NNE 3.5 mph - N/A   Clear
2:35 AM 30.2 °F 25.4 °F 21.2 °F 69% 30.39 in 10.0 mi NNE 4.6 mph - N/A   Clear
2:55 AM 30.2 °F 24.3 °F 21.2 °F 69% 30.39 in 10.0 mi North 5.8 mph - N/A   Clear
3:15 AM 30.2 °F 26.7 °F 21.2 °F 69% 30.39 in 10.0 mi North 3.5 mph - N/A   Clear
3:35 AM 30.2 °F 26.7 °F 21.2 °F 69% 30.39 in 10.0 mi North 3.5 mph - N/A   Clear
3:55 AM 30.2 °F 26.7 °F 21.2 °F 69% 30.40 in 10.0 mi SE 3.5 mph - N/A   Clear
4:15 AM 28.4 °F - 21.2 °F 74% 30.40 in 10.0 mi Calm Calm - N/A   Clear
4:35 AM 28.4 °F - 21.2 °F 74% 30.39 in 10.0 mi Calm Calm - N/A   Clear
4:55 AM 28.4 °F - 21.2 °F 74% 30.39 in 10.0 mi Calm Calm - N/A   Clear
5:15 AM 28.4 °F - 21.2 °F 74% 30.40 in 10.0 mi Calm Calm - N/A   Clear
5:35 AM 26.6 °F 22.6 °F 21.2 °F 80% 30.41 in 10.0 mi SSW 3.5 mph - N/A   Clear
5:55 AM 26.6 °F 22.6 °F 21.2 °F 80% 30.41 in 10.0 mi SSW 3.5 mph - N/A   Clear
6:15 AM 26.6 °F - 21.2 °F 80% 30.40 in 10.0 mi Calm Calm - N/A   Clear
6:35 AM 26.6 °F - 21.2 °F 80% 30.39 in 10.0 mi Calm Calm - N/A   Clear
6:55 AM 26.6 °F - 21.2 °F 80% 30.40 in 10.0 mi Calm Calm - N/A   Clear
7:15 AM 26.6 °F 22.6 °F 21.2 °F 80% 30.41 in 10.0 mi SSW 3.5 mph - N/A   Clear
7:35 AM 26.6 °F 22.6 °F 23.0 °F 86% 30.41 in 10.0 mi South 3.5 mph - N/A   Clear
7:55 AM 28.4 °F - 24.8 °F 86% 30.41 in 10.0 mi Calm Calm - N/A   Clear
8:15 AM 30.2 °F 25.4 °F 23.0 °F 75% 30.43 in 10.0 mi South 4.6 mph - N/A   Clear
8:35 AM 32.0 °F 28.7 °F 24.8 °F 75% 30.43 in 10.0 mi SSW 3.5 mph - N/A   Clear
8:55 AM 33.8 °F 30.8 °F 23.0 °F 65% 30.44 in 10.0 mi South 3.5 mph - N/A   Clear
9:15 AM 33.8 °F 30.8 °F 21.2 °F 60% 30.43 in 10.0 mi South 3.5 mph - N/A   Clear
9:35 AM 35.6 °F - 19.4 °F 52% 30.42 in 10.0 mi Calm Calm - N/A   Clear
9:55 AM 35.6 °F - 17.6 °F 48% 30.42 in 10.0 mi Calm Calm - N/A   Clear
10:15 AM 37.4 °F 34.9 °F 15.8 °F 41% 30.42 in 10.0 mi NE 3.5 mph - N/A   Clear
10:35 AM 37.4 °F - 15.8 °F 41% 30.41 in 10.0 mi Calm Calm - N/A   Clear
10:55 AM 37.4 °F - 15.8 °F 41% 30.40 in 10.0 mi Calm Calm - N/A   Clear
11:15 AM 39.2 °F - 17.6 °F 42% 30.39 in 10.0 mi Calm Calm - N/A   Clear
11:35 AM 41.0 °F 38.0 °F 17.6 °F 39% 30.38 in 10.0 mi WNW 4.6 mph - N/A   Clear
11:55 AM 42.8 °F 40.1 °F 17.6 °F 36% 30.38 in 10.0 mi WNW 4.6 mph - N/A   Clear
12:35 PM 42.8 °F - 19.4 °F 39% 30.34 in 10.0 mi Calm Calm - N/A   Clear
12:55 PM 44.6 °F 41.4 °F 17.6 °F 34% 30.33 in 10.0 mi East 5.8 mph - N/A   Clear
1:15 PM 44.6 °F 40.7 °F 14.0 °F 29% 30.31 in 10.0 mi East 6.9 mph - N/A   Clear
1:35 PM 44.6 °F 40.7 °F 15.8 °F 31% 30.31 in 10.0 mi East 6.9 mph - N/A   Clear
1:55 PM 44.6 °F 43.1 °F 17.6 °F 34% 30.29 in 10.0 mi NE 3.5 mph - N/A   Clear
2:15 PM 46.4 °F 42.9 °F 17.6 °F 32% 30.28 in 10.0 mi East 6.9 mph - N/A   Clear
2:35 PM 46.4 °F 41.5 °F 17.6 °F 32% 30.27 in 10.0 mi East 10.4 mph - N/A   Clear
2:55 PM 46.4 °F 44.3 °F 19.4 °F 34% 30.26 in 10.0 mi East 4.6 mph - N/A   Clear
3:15 PM 46.4 °F - 17.6 °F 32% 30.26 in 10.0 mi Calm Calm - N/A   Clear
3:35 PM 46.4 °F - 17.6 °F 32% 30.26 in 10.0 mi Calm Calm - N/A   Clear
3:55 PM 46.4 °F 45.2 °F 17.6 °F 32% 30.25 in 10.0 mi SSE 3.5 mph - N/A   Clear
4:15 PM 46.4 °F 42.9 °F 19.4 °F 34% 30.25 in 10.0 mi SSE 6.9 mph - N/A   Clear
4:35 PM 46.4 °F 44.3 °F 19.4 °F 34% 30.23 in 10.0 mi SSE 4.6 mph - N/A   Clear
4:55 PM 46.4 °F 45.2 °F 17.6 °F 32% 30.21 in 10.0 mi South 3.5 mph - N/A   Clear
5:15 PM 46.4 °F 44.3 °F 19.4 °F 34% 30.21 in 10.0 mi South 4.6 mph - N/A   Scattered Clouds
5:35 PM 46.4 °F 43.5 °F 19.4 °F 34% 30.21 in 10.0 mi South 5.8 mph - N/A   Overcast
5:55 PM 46.4 °F - 19.4 °F 34% 30.19 in 10.0 mi Calm Calm - N/A   Overcast
6:15 PM 46.4 °F 44.3 °F 21.2 °F 37% 30.19 in 10.0 mi South 4.6 mph - N/A   Overcast
6:35 PM 46.4 °F 45.2 °F 21.2 °F 37% 30.18 in 10.0 mi SSE 3.5 mph - N/A   Overcast
6:55 PM 44.6 °F 38.8 °F 21.2 °F 39% 30.19 in 10.0 mi South 11.5 mph - N/A   Overcast
7:15 PM 41.0 °F 34.7 °F 32.0 °F 70% 30.20 in 10.0 mi SSE 10.4 mph 21.9 mph N/A Rain Light Rain
7:35 PM 37.4 °F 30.8 °F 33.8 °F 87% 30.20 in 10.0 mi South 9.2 mph - N/A Rain Rain
7:55 PM 35.6 °F 31.7 °F 33.8 °F 93% 30.19 in 7.0 mi South 4.6 mph - 0.02 in Rain Rain
8:15 PM 35.6 °F 32.8 °F 33.8 °F 93% 30.19 in 5.0 mi South 3.5 mph - 0.01 in Rain Light Rain
8:35 PM 35.6 °F - 35.6 °F 100% 30.18 in 7.0 mi Calm Calm - 0.03 in Rain Rain
8:55 PM 33.8 °F - 33.8 °F 100% 30.16 in 5.0 mi Calm Calm - 0.05 in Rain Light Rain
9:15 PM 33.8 °F - 33.8 °F 100% 30.16 in 5.0 mi Calm Calm - 0.02 in Rain Rain
9:35 PM 33.8 °F - 33.8 °F 100% 30.15 in 4.0 mi Calm Calm - 0.03 in Rain Light Rain
9:55 PM 35.6 °F - 35.6 °F 100% 30.14 in 4.0 mi Calm Calm - 0.04 in Rain Light Rain
10:15 PM 35.6 °F - 35.6 °F 100% 30.14 in 7.0 mi Calm Calm - 0.01 in Rain Light Rain
10:35 PM 35.6 °F - 35.6 °F 100% 30.12 in 4.0 mi Calm Calm - 0.02 in Rain Light Rain
10:55 PM 35.6 °F - 35.6 °F 100% 30.11 in 5.0 mi Calm Calm - 0.05 in Rain Light Rain
11:15 PM 35.6 °F - 35.6 °F 100% 30.10 in 5.0 mi Calm Calm - 0.01 in Rain Rain
11:35 PM 35.6 °F - 35.6 °F 100% 30.10 in 7.0 mi Calm Calm - 0.01 in   Drizzle
11:55 PM 35.6 °F - 35.6 °F 100% 30.07 in 5.0 mi Calm Calm - 0.02 in Rain Light Rain